This is the latest recevied weather packets stored in our database for station/object KC3DGM. If no packets are shown the sender has not sent any weather packets the latest 10 day(s).
| Time | Temp. | Humidity | Pressure | Rain* | Wind** | Luminosity | Snow |
|---|---|---|---|---|---|---|---|
| 1777311533 | 21.11° C | 48% | 991.4 hPa | 0 mm | - | 526 W/m² | - |
| 1777311231 | 21.11° C | 47% | 991.4 hPa | 0 mm | - | 564 W/m² | - |
| 1777310929 | 21.67° C | 44% | 991.6 hPa | 0 mm | - | 506 W/m² | - |
| 1777310626 | 20.56° C | 46% | 991.2 hPa | 0 mm | - | 516 W/m² | - |
| 1777310323 | 20.56° C | 50% | 991.4 hPa | 0 mm | - | 579 W/m² | - |
| 1777310020 | 20° C | 50% | 991.3 hPa | 0 mm | - | 461 W/m² | - |
| 1777309718 | 19.44° C | 49% | 991.6 hPa | 0 mm | - | 460 W/m² | - |
| 1777309416 | 20° C | 49% | 991.7 hPa | 0 mm | - | 386 W/m² | - |
| 1777309113 | 20° C | 50% | 991.7 hPa | 0 mm | - | 596 W/m² | - |
| 1777308810 | 20.56° C | 49% | 992 hPa | 0 mm | - | 808 W/m² | - |
| 1777308506 | 20.56° C | 47% | 991.7 hPa | 0 mm | - | 737 W/m² | - |
| 1777308201 | 19.44° C | 50% | 991.8 hPa | 0 mm | - | 655 W/m² | - |
| 1777307897 | 19.44° C | 52% | 992 hPa | 0 mm | - | 468 W/m² | - |
| 1777307596 | 20° C | 51% | 992 hPa | 0 mm | - | 758 W/m² | - |
| 1777307292 | 20° C | 50% | 992 hPa | 0 mm | - | 745 W/m² | - |
| 1777306990 | 19.44° C | 49% | 992.2 hPa | 0 mm | - | 748 W/m² | - |
| 1777306687 | 20° C | 50% | 992.3 hPa | 0 mm | - | 757 W/m² | - |
| 1777306384 | 19.44° C | 56% | 992.3 hPa | 0 mm | - | 768 W/m² | - |
| 1777306083 | 18.89° C | 52% | 992.5 hPa | 0 mm | - | 774 W/m² | - |
| 1777305780 | 18.89° C | 49% | 992.5 hPa | 0 mm | - | 731 W/m² | - |
| 1777305476 | 18.33° C | 51% | 992.6 hPa | 0 mm | - | 614 W/m² | - |
| 1777305171 | 18.33° C | 52% | 992.9 hPa | 0 mm | - | 583 W/m² | - |
| 1777304865 | 18.33° C | 52% | 992.7 hPa | 0 mm | - | 582 W/m² | - |
| 1777304563 | 17.78° C | 54% | 992.6 hPa | 0 mm | - | 577 W/m² | - |
| 1777304260 | 17.22° C | 55% | 992.9 hPa | 0 mm | - | 541 W/m² | - |
* Rain latest hour (hover to see other rain measurements)
** Current wind speed in m/s (hover to see current wind gust speed)